CAPE
2 2 0 0 8 3 1 3 4 1 5 4 3 2 3 1 0 0 0 0 0 2 4 0 13 3 9 2 2 0 0 0 0 0 53 85 120 105 21 10 79 42 26 14 0 19 0
1 0 1 0 0 5 3 4 4 2 2 3 2 4 2 0 0 0 0 0 0 0 1 0 21 3 20 6 0 1 0 0 0 0 11 72 91 105 97 46 40 0 12 23 2 1 0
1 2 2 2 1 1 4 5 4 4 2 2 3 1 2 5 5 3 1 0 0 0 0 0 22 15 13 2 0 0 0 0 0 2 11 33 129 199 50 14 17 53 1 44 13 0 0
2 0 1 1 3 3 4 5 5 5 5 2 7 3 3 1 1 1 3 1 0 0 0 0 24 24 2 6 11 1 20 8 10 17 19 77 217 184 86 27 2 1 22 1 3 0 0
5 3 2 1 3 4 4 6 5 6 4 4 5 2 3 0 2 1 1 1 0 0 0 0 1 17 7 3 14 9 0 0 0 27 77 134 257 98 7 14 0 0 1 3 18 0 0
2 5 3 1 0 2 5 5 5 4 5 5 2 3 3 1 2 2 0 0 0 0 0 0 0 3 1 5 0 2 0 3 3 34 72 91 73 33 0 1 0 0 0 6 7 0 0
2 1 3 3 3 1 1 2 1 2 3 1 3 5 2 1 2 0 0 0 0 0 0 0 0 1 0 1 8 7 0 0 33 30 7 35 7 0 2 0 0 0 1 11 0 0 0
2 4 2 2 2 7 6 4 0 2 1 1 3 2 1 1 1 1 0 0 0 0 0 0 0 3 2 0 3 9 0 0 26 11 19 1 2 1 0 0 0 0 0 1 4 0 0
2 5 9 3 4 5 5 3 4 2 1 2 1 2 1 2 1 0 0 0 0 0 6 0 0 0 0 0 5 3 17 6 2 1 11 1 1 5 2 0 0 1 0 17 10 0 0
5 5 6 3 4 5 3 2 3 2 2 1 2 0 1 1 0 0 0 0 0 0 2 0 4 3 4 6 9 0 6 10 8 2 1 0 1 2 4 2 1 1 1 11 0 0 0
9 5 5 3 2 3 3 4 3 3 2 2 1 1 2 0 0 0 0 0 0 1 0 0 0 0 1 6 1 4 0 6 16 2 2 0 1 3 5 1 1 0 0 0 3 0 0
1 8 3 1 2 2 2 4 3 3 3 2 1 1 1 0 0 0 0 0 0 0 0 0 0 0 4 7 5 1 5 5 0 2 4 3 0 1 4 1 0 0 0 22 64 5 23
1 1 5 2 2 3 2 4 2 1 3 2 1 0 1 0 0 0 0 0 0 0 0 0 0 3 5 3 3 1 1 0 7 1 0 0 2 1 0 0 0 0 18 27 72 67 2
1 0 3 4 1 1 2 3 2 1 1 1 2 0 0 0 0 0 0 1 0 0 0 0 0 0 0 1 1 0 0 5 3 2 4 2 1 0 0 0 0 0 41 8 2 3 6
1 3 5 3 2 1 3 2 2 1 0 0 0 0 4 0 0 0 2 0 0 0 0 0 1 2 5 1 1 2 10 4 0 0 0 6 1 0 0 0 0 0 0 0 0 0 1
1 4 4 2 4 2 1 2 1 1 0 1 0 0 4 0 0 0 0 0 0 0 0 0 6 0 2 4 2 3 1 0 0 0 0 0 5 0 0 0 0 0 0 0 0 3 11
0 3 5 2 3 3 0 1 2 1 0 0 0 0 1 0 0 0 0 0 0 0 0 0 0 0 0 1 0 4 0 0 0 0 0 0 0 3 1 9 15 0 0 0 0 0 6
0 5 6 5 3 2 0 1 3 0 0 0 1 0 1 0 1 0 0 0 0 0 0 0 0 0 0 0 0 6 0 0 0 0 0 0 0 6 10 0 0 0 0 0 1 0 0
0 4 5 5 5 2 1 1 1 1 0 0 0 0 1 1 0 0 0 0 0 0 0 0 0 0 0 0 0 0 0 0 0 0 1 0 1 4 0 0 0 0 0 0 0 0 0
0 1 4 6 11 3 1 1 1 3 0 0 0 0 1 2 0 0 0 0 0 0 0 0 0 0 0 0 0 0 0 0 0 0 0 0 0 0 1 2 1 0 0 0 0 0 0
0 0 0 9 12 5 1 2 0 1 1 2 0 0 0 0 0 0 0 0 0 0 0 0 0 0 0 0 0 0 0 0 0 0 0 0 0 0 0 0 0 0 0 0 0 0 0
0 0 0 7 12 10 3 0 1 1 1 0 0 0 0 0 0 0 0 0 0 0 0 0 0 0 0 0 0 0 0 0 0 0 0 0 1 0 0 0 0 0 0 0 0 0 0
3 1 4 4 14 8 5 0 1 3 0 0 0 0 0 0 0 0 0 0 0 0 0 0 0 0 0 0 0 0 0 0 0 0 0 0 0 0 0 0 0 0 0 0 0 0 0
4 7 8 3 6 9 6 0 0 0 0 0 0 0 0 0 0 0 0 0 0 0 0 0 0 0 0 0 0 0 0 0 0 0 0 0 0 0 0 0 0 0 0 0 0 0 0
2 15 6 4 2 8 7 3 2 0 0 0 0 0 0 0 0 0 0 0 0 0 0 0 0 0 0 0 0 0 0 0 0 0 0 0 0 0 0 0 0 0 0 0 0 0 0
5 2 14 0 0 3 5 8 1 1 0 0 0 0 0 0 0 0 0 0 0 0 0 0 0 0 0 0 0 0 0 0 0 0 0 0 0 0 0 0 0 0 0 0 0 0 0
8 3 0 23 0 0 3 7 1 4 0 0 0 0 0 0 0 0 0 0 0 0 0 0 0 0 0 0 0 0 0 0 0 0 0 0 0 0 0 0 0 0 0 0 0 0 0
4 0 0 14 0 0 3 8 6 4 0 0 0 0 0 0 0 0 0 0 0 0 0 0 0 0 0 0 0 0 0 0 0 0 0 0 0 0 0 0 0 0 0 0 0 0 0
5 1 1 1 0 0 0 2 10 4 2 0 0 0 0 0 0 0 0 0 0 0 0 0 0 0 0 0 0 0 0 0 0 0 0 0 0 0 0 0 0 0 0 0 0 0 0
CIN
-1 -1 0 0 -1 -1 -1 -1 -1 0 0 0 0 0 0 0 0 0 0 0 0 0 0 0 -1 -10 -3 -1 -1 -5 0 0 0 0 -43 -7 -1 -1 -3 -7 -3 -9 -1 -1 0 -4 0
0 0 0 0 0 -1 -1 -1 -1 -1 0 -1 0 0 0 0 0 0 0 0 0 0 0 0 0 -2 -1 0 -6 -9 0 0 0 0 -1 -5 -1 -2 -1 -1 -2 0 -23 -2 -2 -1 0
0 0 -1 -1 0 0 0 -1 -2 -1 -1 -1 -1 0 0 0 0 0 0 0 0 0 0 0 0 0 0 -1 0 0 0 0 0 -1 -1 -1 -6 -1 -16 -14 -4 -3 -2 -5 -3 -1 0
0 0 0 0 -1 0 -1 -1 -1 -2 0 0 0 0 0 -2 0 0 0 0 0 0 0 0 -1 -1 -2 -12 -16 -7 -1 -2 -1 -1 -2 -2 -3 -3 0 -2 -6 0 -1 0 -5 0 0
-1 0 0 0 -1 -1 0 -1 -2 -2 -1 0 -1 0 0 0 0 -1 0 0 0 0 0 0 0 -1 0 -20 -8 -5 -1 -2 0 0 -2 -1 0 0 -20 -1 0 0 -7 -1 -4 0 0
0 -1 0 -1 0 -1 -1 -1 -1 -1 0 -1 0 0 -1 -1 0 0 0 0 0 0 0 0 0 -1 -1 -1 -1 -7 -15 -4 -1 0 0 0 0 -5 -1 0 0 0 0 -3 -4 0 0
-1 -1 0 0 0 -1 0 -2 -2 0 0 0 0 0 0 0 0 0 0 0 0 0 0 0 0 -1 -1 -1 -15 -22 0 0 -1 -1 0 0 0 -1 0 0 0 0 0 -5 0 0 0
0 -1 -1 -1 0 -1 -1 -1 0 0 0 0 -1 0 0 0 0 0 0 0 0 0 0 0 0 -1 -1 0 -3 -5 -1 0 0 0 -1 -1 0 -1 0 0 0 0 0 -4 -1 0 0
-1 -1 -2 -2 -1 -2 -2 0 0 -1 0 0 0 0 0 0 0 0 0 0 0 0 0 0 0 0 0 0 -3 -7 -5 -1 0 -1 0 0 0 0 0 0 0 0 0 -10 -17 0 0
-1 -1 -1 -3 -2 -2 -1 0 0 -1 -1 0 0 0 0 0 0 0 0 0 0 0 0 0 0 -1 -1 -1 0 -4 -21 -2 0 -1 0 0 0 0 0 0 0 -2 -4 -9 0 0 0
-1 -1 -1 -2 -2 -1 0 0 -1 0 0 0 0 0 0 0 0 0 0 0 0 0 0 0 0 0 0 0 -1 -1 0 -10 0 0 0 0 0 0 0 0 0 0 0 -1 -28 0 0
-3 -1 -1 -2 -1 -2 -2 -1 0 0 -1 -1 -1 0 0 0 0 0 0 0 0 0 0 0 0 0 -1 0 0 0 0 -10 -1 -1 0 0 0 0 -2 0 -1 0 -1 -19 -5 -15 -3
-2 -2 -1 -2 -1 -2 -3 -1 0 -1 -1 -1 0 0 -1 0 0 0 0 0 -1 0 0 0 0 0 -1 -1 -1 0 -1 0 0 0 0 0 0 -1 0 0 0 0 -12 -10 -10 -10 -2
-3 0 -1 -2 -2 -1 -2 -1 0 0 0 -1 -2 0 -1 0 0 0 0 -1 0 0 0 0 -2 0 0 -1 -1 0 0 -1 -2 0 0 -1 0 0 0 0 0 0 -14 -15 -15 -3 -6
-4 -2 -2 -2 -2 -2 -2 -1 -1 0 0 -1 0 0 0 0 0 0 -1 0 0 0 0 0 -2 -2 -3 0 0 0 -3 -1 -1 -1 0 -2 -4 0 0 0 0 0 0 0 0 -1 -12
-1 -1 -1 -2 -3 -4 -3 -2 -1 0 0 0 0 -1 0 0 0 0 0 0 0 0 0 0 -1 0 -5 -1 -2 0 -1 0 -1 0 0 0 -3 -3 0 0 0 0 0 0 0 -30 -5
0 -1 -1 -2 -4 -7 -2 -2 -2 0 0 0 0 0 0 0 0 -1 0 0 0 0 0 0 0 -1 -1 -1 0 -1 -1 0 0 0 0 0 0 -9 -28 -30 -8 0 0 0 0 0 -13
0 -4 -1 -4 -6 -6 -3 -1 0 -1 0 0 0 0 0 0 0 0 0 0 0 0 0 0 0 0 0 0 0 -1 0 0 0 0 -3 0 0 -7 -13 0 0 0 0 0 0 0 0
0 -4 -5 -4 -7 -7 -4 -3 -2 -2 0 0 0 0 0 0 0 0 0 0 0 0 0 0 0 0 0 0 0 0 0 0 0 0 -15 0 -2 -2 0 0 0 0 0 0 0 0 0
0 -3 -6 -4 -7 -8 -4 -3 -2 -2 -1 0 0 0 0 0 0 0 0 0 0 0 0 0 0 0 0 0 0 0 0 0 0 0 0 0 0 0 -2 -3 -3 -13 0 0 0 0 0
0 0 -2 -6 -5 -10 -7 -5 -1 -1 0 0 0 0 0 0 0 0 0 0 0 0 0 0 0 0 0 0 0 0 0 0 0 0 0 0 0 0 0 0 0 0 0 0 0 0 0
0 0 0 -5 -5 -8 -10 -11 -3 -1 0 0 0 0 0 0 0 0 0 0 0 0 0 0 0 0 0 0 0 0 0 0 0 0 0 0 -5 0 0 0 0 0 0 0 0 0 0
0 -3 -5 -7 -5 -8 -13 -11 -1 0 -1 0 0 0 0 0 0 0 0 0 0 0 0 0 0 0 0 0 0 0 0 0 0 0 0 0 0 0 -1 0 0 0 0 0 0 0 0
0 0 -5 -8 -6 -6 -11 -4 0 0 0 0 0 0 0 0 0 0 0 0 0 0 0 0 0 0 0 0 0 0 0 0 0 0 0 0 0 0 0 0 0 0 0 0 0 0 0
0 0 -2 -4 -8 -7 -9 -15 -9 0 0 0 0 0 0 0 0 0 0 0 0 0 0 0 0 0 0 0 0 0 0 0 0 0 0 0 0 0 0 0 0 0 0 0 0 0 0
0 0 0 -2 -12 -8 -7 -9 -15 -10 0 0 0 0 0 0 0 0 0 0 0 0 0 0 0 0 0 0 0 0 0 0 0 0 0 0 0 0 0 0 0 0 0 0 0 0 0
0 0 0 -4 0 -5 -6 -7 -12 -11 0 0 0 0 0 0 0 0 0 0 0 0 0 0 0 0 0 0 0 0 0 0 0 0 0 0 0 0 0 0 0 0 0 0 0 0 0
0 0 0 -1 0 0 -7 -8 -9 -14 -6 0 0 0 0 0 0 0 0 0 0 0 0 0 0 0 0 0 0 0 0 0 0 0 0 0 0 0 0 0 0 0 0 0 0 0 0
0 0 0 -1 0 0 -1 -6 -8 -13 -24 0 0 0 0 0 0 0 0 0 0 0 0 0 0 0 0 0 0 0 0 0 0 0 0 0 0 0 0 0 0 0 0 0 0 0 0
Wind_Speed
20 20 20 20 22 21 22 22 23 23 24 23 22 22 21 21 21 21 23 25 25 25 25 29 30 23 22 20 20 16 23 26 26 20 17 13 25 30 36 36 41 43 50 46 50 41 40
19 19 19 21 21 22 22 23 23 23 23 23 22 20 20 20 20 21 22 24 25 26 26 24 25 20 21 24 17 18 25 28 20 17 19 12 19 31 36 38 36 37 44 50 49 46 40
18 19 20 21 21 21 22 22 22 22 22 21 21 20 21 20 20 21 22 23 24 24 23 20 20 18 21 19 18 22 28 26 23 15 16 15 17 22 25 34 40 42 48 50 48 52 44
17 18 19 20 21 21 21 21 20 20 20 20 21 21 20 19 19 21 22 22 21 20 20 18 17 17 20 17 21 24 28 30 21 14 13 18 18 26 28 27 32 39 44 51 55 49 44
19 20 20 20 21 21 21 19 17 18 18 18 20 20 21 19 20 21 21 20 18 16 18 15 17 17 20 17 20 29 24 26 20 7 9 15 15 25 24 30 35 37 46 51 50 48 43
19 20 20 21 21 21 21 18 18 17 16 17 18 19 20 19 20 21 20 18 16 16 15 15 14 19 12 23 31 27 23 12 11 12 6 11 23 30 30 34 44 39 47 44 49 46 49
20 21 22 22 22 21 21 20 19 16 16 16 16 17 19 19 20 21 23 20 19 18 17 18 19 17 16 22 23 25 24 21 13 20 24 25 32 37 39 41 41 44 42 40 44 40 48
22 22 20 21 21 22 23 23 20 18 16 15 16 16 17 19 20 19 19 21 21 18 19 13 16 15 14 19 22 21 22 15 16 20 24 25 31 31 31 32 36 39 40 36 37 33 45
24 24 23 22 22 22 23 23 23 20 17 15 16 16 16 18 18 18 20 20 18 18 16 15 17 15 15 21 10 18 21 15 14 21 24 26 21 25 29 30 30 30 33 30 36 35 40
23 24 24 23 22 22 23 23 23 21 19 15 15 16 16 17 17 19 19 18 17 17 18 18 19 16 14 21 5 10 13 11 14 16 21 22 21 26 28 29 31 22 19 20 31 38 46
25 23 23 23 22 23 23 23 24 23 20 16 15 15 15 17 19 19 19 17 16 16 26 20 18 14 10 19 19 14 13 9 17 16 16 19 20 23 29 25 26 21 19 30 28 39 37
26 24 23 22 23 23 23 24 24 24 21 18 15 14 15 16 16 18 17 17 16 21 24 19 18 18 14 14 19 17 18 16 15 17 17 16 9 15 19 16 28 19 16 18 29 36 42
26 26 24 22 23 23 23 24 24 24 22 20 16 13 14 16 19 16 16 17 22 25 18 18 19 16 16 13 17 17 18 16 14 15 14 14 13 12 18 19 13 14 12 24 34 40 42
27 27 24 23 22 23 23 23 24 24 22 21 16 13 14 15 15 16 15 19 24 20 18 16 16 15 17 14 14 15 17 12 15 14 14 13 11 11 13 9 6 6 22 24 39 35 35
29 28 24 23 22 22 22 22 23 23 22 19 15 14 15 16 15 15 16 21 21 19 16 15 13 13 16 15 12 16 13 14 13 14 15 15 13 12 12 10 11 1 22 19 21 25 32
31 29 27 24 23 21 22 22 22 23 21 15 16 15 15 14 14 14 17 18 17 15 14 14 15 15 15 16 12 15 14 15 16 15 16 15 13 13 12 10 10 16 18 21 22 32 36
28 30 29 25 23 21 21 22 21 22 21 14 14 16 16 14 14 14 17 16 15 12 13 14 13 13 11 11 10 10 8 18 17 18 17 18 16 14 15 3 12 13 25 23 23 22 29
28 28 30 27 24 22 21 22 21 20 18 14 16 17 15 14 16 15 15 15 14 13 12 11 11 10 10 10 9 10 9 19 18 17 17 17 18 16 11 10 20 22 22 26 23 26 22
30 30 30 30 26 22 21 21 21 18 16 17 16 17 15 13 16 14 15 13 12 12 11 12 11 11 10 10 10 10 11 17 17 17 18 17 16 14 13 13 10 21 24 24 23 19 26
29 27 30 30 29 23 22 21 20 20 16 16 16 17 15 12 13 14 14 11 12 11 9 10 8 10 9 8 10 9 9 11 11 15 18 18 17 20 20 16 17 22 26 24 24 22 20
31 27 29 29 32 26 22 21 20 21 18 14 14 16 16 16 12 9 15 14 11 11 10 11 11 10 10 10 9 10 10 11 13 13 18 19 20 19 17 16 20 23 25 26 26 25 22
29 28 26 27 32 30 24 20 20 19 13 16 17 17 15 17 15 12 11 14 10 10 10 11 10 10 10 9 9 10 12 12 13 12 11 14 19 18 19 17 23 32 30 28 29 27 26
29 28 27 25 28 27 26 21 20 16 12 19 17 18 18 15 14 13 11 13 14 11 11 10 10 9 9 9 8 8 10 11 12 11 10 10 14 19 17 18 22 31 37 34 29 28 27
32 27 29 29 26 25 24 24 20 18 14 21 19 18 17 19 13 12 16 13 11 9 10 12 11 10 11 13 11 11 12 11 12 12 15 15 10 21 20 19 25 23 23 28 33 29 31
21 25 26 28 24 25 24 25 21 19 17 23 20 19 18 20 18 17 12 12 13 12 10 10 11 11 12 11 10 10 11 11 12 12 14 16 18 19 19 22 23 24 25 26 26 27 30
21 24 29 26 25 27 27 25 23 20 19 22 22 20 20 21 18 17 15 12 12 11 13 12 13 13 12 11 11 13 13 13 14 14 15 16 18 18 18 20 22 17 19 21 21 27 21
22 24 29 26 24 26 29 27 25 21 20 22 22 19 20 21 20 16 16 15 13 13 15 14 13 13 12 12 11 12 13 13 13 14 15 17 18 18 18 19 20 17 16 18 24 21 20
26 25 28 28 24 21 28 28 25 24 20 21 22 19 21 23 22 19 18 16 15 13 14 14 15 13 12 12 12 12 12 13 12 13 14 16 18 18 19 19 20 17 16 21 19 17 17
26 27 28 29 21 23 27 26 27 23 20 21 25 20 19 23 22 19 20 20 17 15 15 10 15 15 13 12 12 12 10 12 11 13 14 15 17 16 19 18 17 23 17 17 16 16 16
Wind_Direction
312 316 323 329 331 342 344 347 349 353 355 359 2 4 6 7 6 4 1 360 358 355 352 349 346 349 348 343 334 344 329 319 319 323 302 278 271 261 259 259 252 251 246 244 241 249 246
323 324 331 327 330 337 341 347 352 353 356 359 4 7 6 6 4 1 360 357 356 354 352 350 348 351 343 334 351 342 326 318 317 316 302 281 274 264 260 256 252 253 248 243 238 241 246
324 325 324 327 334 338 344 350 354 359 2 4 5 6 6 5 2 359 357 355 354 355 355 356 356 353 341 333 345 336 319 320 323 307 297 292 270 266 262 257 253 250 249 243 239 235 240
326 328 329 329 334 338 346 353 1 5 6 7 5 5 5 4 2 360 357 356 356 358 360 2 2 359 347 356 342 334 320 321 320 296 288 285 274 263 262 264 260 250 248 243 230 231 234
319 317 320 327 331 337 346 359 10 11 11 11 7 6 5 5 3 1 360 358 357 5 6 10 7 5 351 5 352 321 343 335 343 303 270 280 271 262 259 251 252 248 241 240 226 227 228
319 317 321 322 327 335 345 359 5 10 12 11 10 9 8 8 6 4 3 360 13 18 21 18 15 5 19 354 321 330 353 3 23 123 288 270 255 247 247 242 238 246 243 236 225 220 223
314 315 314 319 325 334 342 350 359 8 12 12 13 12 11 12 10 10 10 19 19 21 20 14 8 5 3 354 333 345 6 357 82 132 227 237 224 212 218 223 235 240 236 230 224 224 219
303 309 317 322 325 329 335 341 355 3 12 14 13 15 16 16 14 17 22 22 24 23 15 25 18 18 25 353 291 8 15 33 99 155 221 211 209 209 223 237 229 235 228 227 223 224 218
297 302 310 320 322 327 334 340 349 1 10 16 14 18 20 20 21 28 26 27 34 30 24 32 26 32 37 290 302 354 23 75 91 231 209 197 230 226 227 238 240 237 231 227 221 220 219
297 298 302 311 317 324 330 338 346 357 5 15 17 20 25 26 30 28 29 35 38 38 31 31 33 47 50 279 250 111 80 95 273 237 225 217 208 240 237 231 218 239 237 233 221 212 212
289 295 300 306 313 320 327 335 343 351 1 13 19 23 30 35 27 30 31 40 44 49 21 30 36 52 75 283 266 45 85 106 294 264 266 239 244 232 233 236 221 243 246 228 219 214 213
284 290 295 303 307 312 322 330 340 348 359 9 21 26 36 38 37 35 41 47 50 35 26 36 41 47 64 357 308 259 318 59 266 278 284 270 83 254 243 243 221 258 247 241 218 216 218
279 282 290 297 303 308 315 325 335 346 356 5 19 32 39 40 31 44 47 45 31 29 44 41 41 52 61 79 278 281 305 270 248 283 282 298 321 246 214 219 104 252 229 217 207 218 214
274 278 283 290 298 303 310 320 330 342 353 3 19 37 38 39 45 48 49 38 29 38 44 51 54 62 64 84 223 259 296 231 262 223 272 268 269 251 256 284 53 119 226 218 214 211 214
269 273 278 284 292 298 305 316 325 337 351 5 25 31 29 36 51 49 44 32 34 42 52 56 64 68 67 92 162 261 177 237 253 217 296 262 301 319 311 311 276 259 233 228 235 228 216
263 268 272 278 285 293 300 309 322 331 344 10 12 22 21 41 50 49 37 35 43 59 65 68 65 69 68 74 137 263 285 283 285 259 235 288 303 310 341 314 287 251 232 230 230 219 214
263 262 267 272 278 285 295 301 317 326 340 9 9 8 19 40 44 41 31 38 50 69 77 74 77 79 92 99 109 158 219 313 319 307 289 274 295 299 268 59 287 256 229 228 236 236 223
261 263 261 265 272 279 289 295 306 322 339 354 357 354 18 35 25 34 34 42 54 69 86 93 100 98 98 102 124 111 112 252 288 271 311 314 298 287 326 345 198 246 238 231 237 228 234
260 258 258 260 265 273 282 289 297 314 330 336 345 349 11 27 20 30 33 44 59 73 88 90 98 116 105 107 108 113 95 330 315 325 311 299 298 303 311 308 321 250 237 239 238 245 229
259 258 255 257 259 267 275 282 290 300 319 324 336 339 359 18 17 27 30 46 57 76 95 105 121 123 127 125 108 117 110 83 18 327 295 304 312 278 269 286 268 243 234 236 237 232 232
253 258 254 255 254 260 269 276 283 290 303 313 327 329 341 355 16 39 28 35 57 72 91 102 104 123 112 106 106 106 105 109 113 342 301 302 292 294 297 295 260 242 235 233 232 235 232
252 255 256 255 251 254 260 270 279 286 302 297 308 316 334 336 355 20 37 32 61 74 82 87 113 107 118 120 110 90 89 98 96 109 67 332 277 309 288 288 255 230 234 235 230 234 236
248 254 255 254 250 252 253 262 271 277 281 291 301 305 312 332 350 3 25 30 35 62 75 93 101 119 116 120 117 118 123 119 100 84 84 45 310 263 275 274 245 227 221 229 231 234 235
249 254 252 252 250 249 249 253 263 267 270 285 291 296 303 309 337 349 351 18 38 70 66 67 90 108 96 87 99 102 103 111 115 116 153 154 149 229 247 252 231 237 242 236 231 236 230
267 254 255 254 251 245 248 250 257 266 270 274 281 283 292 299 312 323 350 5 22 42 56 68 72 79 87 111 109 107 112 117 118 120 138 159 179 196 184 232 238 238 232 231 237 240 236
274 268 253 255 252 247 246 249 253 262 265 270 272 276 283 292 304 316 328 353 10 41 29 46 58 59 89 106 104 92 93 103 108 117 141 157 172 170 160 218 218 246 241 235 240 237 248
275 278 267 251 250 248 244 245 249 254 260 265 270 271 275 281 293 311 313 325 351 4 11 28 48 66 81 96 110 100 98 115 109 118 126 138 155 160 165 203 231 255 251 238 232 240 254
271 283 280 252 245 245 241 241 244 248 255 260 267 268 270 276 285 297 304 314 328 345 3 25 29 50 69 87 101 112 107 106 121 126 130 134 141 150 158 172 199 238 244 233 244 255 262
273 278 289 257 235 240 239 239 240 246 252 257 261 269 271 273 283 297 297 297 310 324 335 19 354 16 35 66 74 84 131 115 118 119 140 136 152 152 161 168 198 186 234 240 249 257 265